Location: Ch�teau-Arnoux
(44.0814°N, 6.0027°E)
Time: 11:05:22
(UTC+00:00)

Cosmos 2278 - Pass Details

Date: 15 November 2019
Orbit: 838 x 854 km, 71.1° (Epoch: 10 December)

Event Time Altitude Azimuth Distance (km) Brightness Sun altitude
Exits shadow 04:28:57 46° 270° (W) 1,139 3.9 -21.8°
Maximum altitude 04:29:30 47° 252° (WSW) 1,116 3.9 -21.7°
Drops below altitude 10° 04:34:55 10° 180° (S) 2,476 6.2 -20.7°
Sets 04:37:26 0° 175° (S) 3,406 7.0 -20.3°
